COSMOS 1275 DEB, 12745

Orbit data source: Space-Track

COSMOS 1275 DEB, 12745 is space debris in LEO originally from a launch on Thu, 04 Jun 1981 UTC launched from the Plesetsk Missile And Space Complex (PKMTR). Debris objects in space refer to the collection of defunct objects orbiting the Earth. Examples of debris include non-operational satellites, rocket bodies, and fragments generated from explosions, collisions, or faulty payload assembly.

Loading next visibility...
Identifier
12745, 1981-053CN
Orbit
LEO
Country
Flag of CISCIS
Related business
Manufacturer
Unknown
Mission
Spacecraft
Bus & Motor
Unknown
Mass
Unknown
Launch date (UTC)
1981-06-04 (45 years ago)
Launch vehicle
Unknown
Launch site
Plesetsk Missile And Space Complex (PKMTR)
Object type
Payload
Rocket body
Debris
Shape & HBR
Unknown shape, 0.1 m
Radar Cross Section
Medium (>0.1 m² and <1 m²)

Expand to show TLE details & history
Last TLE update: 2 days ago

TLE from 2 days ago
0 COSMOS 1275 DEB
1 12745U 81053CN  26171.33237791  .00000940  00000-0  72283-3 0  9996
2 12745  83.1368 127.5763 0043482 288.2195 224.7812 13.91697309259513
Epoch: 2026-06-20T07:58Z
TLE epoch observation values (Epoch: 2026-06-20T07:58:37.451Z)
Latitude
27.17456°
Longitude
-84.15234°
Altitude
948.633 km
Speed
7.368 km/s
True Right ascension
20h 16m 12s
True Declination
27° 02' 19"
Sunlit
Object was in partial shadow at epoch
Visualization orbit readout
Latitude
Unknown
Longitude
Unknown
Altitude
Unknown
Speed
Unknown
Apparent Right ascension
Unknown
Apparent Declination
Unknown
Sunlit
N/A
Visualization observer readout
Local Sidereal Time
11:16:30
Azimuth
Unknown
Elevation
Unknown
Doppler factor
Unknown
Orbital elements
Apogee altitude
951.54 km
Perigee altitude
888.074 km
Semi-major axis
7,297.944 km
Eccentricity
0.00435
Inclination
83.1368°
RAAN
127.5763°
Arg. of periapsis
288.2195°
True anomaly
224.43157°
Mean anomaly
224.7812°
Eccentric anomaly
224.60625°
Mean motion
3.48131 °/min
Orbital period
103.41 mins
BSTAR
0.00072283
Loading maneuver chart data...
Computing Atmospheric mass density...
Loading historical data...
Loading historical data...
Loading historical data...
Loading historical data...
Loading historical data...
Loading historical data...
Loading historical data...

Documentation

Showing up to 5 results
|